EZE2AM EGJJ-EGSS

Flight info

Callsign EZE2AM
Flight time 0h 57m
Altitude 19000
Route ORIST L982 TELTU
Aircraft AT72/M-SDFGIRY/S

Departure

Time 2026-05-04 19:41
Airport Jersey Airport (EGJJ)

Arrival

Time 2026-05-04 20:38
Airport London Stansted Airport (EGSS)
Time Latitude Longitude Altitude Speed Heading
2026-05-04 19:17 49.20485 -2.19843 277 ft 0 kts 350°
2026-05-04 19:28 49.20479 -2.19842 277 ft 2 kts 350°
2026-05-04 19:28 49.20459 -2.19836 277 ft 3 kts 350°
2026-05-04 19:29 49.20438 -2.19820 277 ft 3 kts 282°
2026-05-04 19:29 49.20437 -2.19809 277 ft 0 kts 264°
2026-05-04 19:35 49.20436 -2.19824 277 ft 3 kts 264°
2026-05-04 19:35 49.20434 -2.19863 277 ft 4 kts 264°
2026-05-04 19:35 49.20446 -2.19907 277 ft 5 kts 315°
2026-05-04 19:35 49.20482 -2.19920 277 ft 6 kts 353°
2026-05-04 19:36 49.20515 -2.19955 277 ft 6 kts 293°
2026-05-04 19:36 49.20524 -2.20021 277 ft 7 kts 285°
2026-05-04 19:36 49.20540 -2.20104 277 ft 10 kts 287°
2026-05-04 19:36 49.20562 -2.20214 276 ft 12 kts 287°
2026-05-04 19:37 49.20587 -2.20340 276 ft 13 kts 287°
2026-05-04 19:37 49.20612 -2.20467 276 ft 11 kts 287°
2026-05-04 19:37 49.20616 -2.20488 276 ft 1 kts 287°
2026-05-04 19:37 49.20620 -2.20514 276 ft 4 kts 283°
2026-05-04 19:38 49.20627 -2.20559 276 ft 5 kts 283°
2026-05-04 19:38 49.20635 -2.20613 276 ft 3 kts 271°
2026-05-04 19:38 49.20641 -2.20676 276 ft 10 kts 307°
2026-05-04 19:38 49.20702 -2.20675 275 ft 10 kts 47°
2026-05-04 19:39 49.20712 -2.20587 275 ft 0 kts 82°
2026-05-04 19:39 49.20713 -2.20566 275 ft 1 kts 82°
2026-05-04 19:40 49.20736 -2.20296 275 ft 53 kts 82°
2026-05-04 19:40 49.20810 -2.19462 280 ft 107 kts 83°
2026-05-04 19:40 49.20924 -2.18137 472 ft 134 kts 82°
2026-05-04 19:40 49.21081 -2.16576 631 ft 170 kts 81°
2026-05-04 19:41 49.21322 -2.14618 726 ft 201 kts 80°
2026-05-04 19:41 49.21549 -2.12407 1033 ft 212 kts 81°
2026-05-04 19:41 49.21821 -2.10217 1635 ft 209 kts 76°
2026-05-04 19:41 49.22489 -2.08319 2220 ft 207 kts 38°
2026-05-04 19:42 49.23843 -2.07372 2156 ft 228 kts 18°
2026-05-04 19:42 49.25437 -2.06622 1859 ft 241 kts 13°
2026-05-04 19:42 49.27071 -2.06081 1506 ft 240 kts
2026-05-04 19:42 49.28724 -2.05651 1113 ft 242 kts
2026-05-04 19:43 49.30347 -2.05314 1278 ft 217 kts
2026-05-04 19:43 49.31787 -2.04971 1356 ft 210 kts
2026-05-04 19:43 49.33245 -2.04508 1139 ft 217 kts 11°
2026-05-04 19:43 49.34746 -2.04074 944 ft 221 kts
2026-05-04 19:44 49.36285 -2.03800 770 ft 223 kts
2026-05-04 19:44 49.37877 -2.03683 541 ft 240 kts
2026-05-04 19:44 49.39583 -2.03624 695 ft 241 kts
2026-05-04 19:44 49.41289 -2.03541 661 ft 253 kts
2026-05-04 19:45 49.42990 -2.03460 1057 ft 243 kts
2026-05-04 19:45 49.44698 -2.03345 1119 ft 251 kts
2026-05-04 19:45 49.46463 -2.03160 1074 ft 258 kts
2026-05-04 19:45 49.48224 -2.03036 1349 ft 253 kts 359°
2026-05-04 19:46 49.49983 -2.03060 1492 ft 253 kts 358°
2026-05-04 19:46 49.51743 -2.03079 1651 ft 252 kts 359°
2026-05-04 19:46 49.53494 -2.03036 1832 ft 252 kts
2026-05-04 19:46 49.55229 -2.02940 2126 ft 247 kts
2026-05-04 19:47 49.56936 -2.02847 2426 ft 243 kts
2026-05-04 19:47 49.58617 -2.02757 2735 ft 240 kts
2026-05-04 19:47 49.60282 -2.02669 3031 ft 238 kts
2026-05-04 19:47 49.61932 -2.02580 3327 ft 237 kts
2026-05-04 19:48 49.63576 -2.02492 3630 ft 236 kts
2026-05-04 19:48 49.65219 -2.02408 3930 ft 236 kts
2026-05-04 19:48 49.66860 -2.02322 4234 ft 236 kts
2026-05-04 19:48 49.68500 -2.02235 4532 ft 236 kts
2026-05-04 19:49 49.70141 -2.02147 4831 ft 235 kts
2026-05-04 19:49 49.71225 -2.02091 5030 ft 235 kts
2026-05-04 19:49 49.72858 -2.02005 5335 ft 235 kts
2026-05-04 19:49 49.74496 -2.01918 5636 ft 235 kts
2026-05-04 19:50 49.76133 -2.01831 5939 ft 235 kts
2026-05-04 19:50 49.77770 -2.01749 6239 ft 235 kts
2026-05-04 19:50 49.79366 -2.01406 6539 ft 232 kts 21°
2026-05-04 19:50 49.80796 -2.00265 6837 ft 233 kts 28°
2026-05-04 19:51 49.82201 -1.99007 7132 ft 234 kts 29°
2026-05-04 19:51 49.83613 -1.97748 7444 ft 234 kts 28°
2026-05-04 19:51 49.85022 -1.96548 7738 ft 234 kts 27°
2026-05-04 19:51 49.86464 -1.95380 8037 ft 234 kts 26°
2026-05-04 19:52 49.87906 -1.94216 8340 ft 233 kts 26°
2026-05-04 19:52 49.89342 -1.93061 8640 ft 232 kts 26°
2026-05-04 19:52 49.90782 -1.91902 8941 ft 233 kts 26°
2026-05-04 19:52 49.92221 -1.90741 9235 ft 233 kts 26°
2026-05-04 19:53 49.93663 -1.89578 9544 ft 234 kts 26°
2026-05-04 19:53 49.95108 -1.88411 9843 ft 234 kts 26°
2026-05-04 19:53 49.96551 -1.87244 10142 ft 234 kts 26°
2026-05-04 19:53 49.97996 -1.86076 10448 ft 235 kts 26°
2026-05-04 19:54 49.99449 -1.84901 10747 ft 236 kts 26°
2026-05-04 19:54 50.00913 -1.83734 11047 ft 237 kts 26°
2026-05-04 19:54 50.02384 -1.82575 11339 ft 238 kts 26°
2026-05-04 19:54 50.03860 -1.81408 11648 ft 238 kts 26°
2026-05-04 19:55 50.05340 -1.80235 11949 ft 239 kts 26°
2026-05-04 19:55 50.06825 -1.79059 12244 ft 240 kts 26°
2026-05-04 19:55 50.08326 -1.77875 12491 ft 244 kts 26°
2026-05-04 19:55 50.09844 -1.76672 12741 ft 246 kts 26°
2026-05-04 19:56 50.11388 -1.75443 12886 ft 253 kts 26°
2026-05-04 19:56 50.12958 -1.74121 12948 ft 261 kts 32°
2026-05-04 19:56 50.14412 -1.72344 12973 ft 270 kts 40°
2026-05-04 19:56 50.15831 -1.70363 12988 ft 277 kts 41°
2026-05-04 19:57 50.17281 -1.68340 12992 ft 282 kts 40°
2026-05-04 19:57 50.18786 -1.66339 12997 ft 285 kts 39°
2026-05-04 19:57 50.20323 -1.64361 12998 ft 288 kts 39°
2026-05-04 19:57 50.21872 -1.62354 12998 ft 290 kts 39°
2026-05-04 19:58 50.23410 -1.60358 12999 ft 292 kts 39°
2026-05-04 19:58 50.24976 -1.58322 12999 ft 294 kts 39°
2026-05-04 19:58 50.26546 -1.56272 12999 ft 295 kts 39°
2026-05-04 19:58 50.28126 -1.54225 12999 ft 295 kts 38°
2026-05-04 19:59 50.29714 -1.52182 13000 ft 296 kts 39°
2026-05-04 19:59 50.31300 -1.50126 12999 ft 296 kts 39°
2026-05-04 19:59 50.32887 -1.48069 12999 ft 297 kts 39°
2026-05-04 19:59 50.34475 -1.46005 13000 ft 297 kts 39°
2026-05-04 20:00 50.36067 -1.43938 13000 ft 297 kts 39°
2026-05-04 20:00 50.37659 -1.41868 12999 ft 297 kts 39°
2026-05-04 20:00 50.39256 -1.39801 13158 ft 297 kts 40°
2026-05-04 20:00 50.40864 -1.37739 13063 ft 299 kts 40°
2026-05-04 20:01 50.42470 -1.35665 13035 ft 298 kts 40°
2026-05-04 20:01 50.44063 -1.33590 13020 ft 297 kts 40°
2026-05-04 20:01 50.45628 -1.31540 13013 ft 297 kts 40°
2026-05-04 20:01 50.47211 -1.29465 13010 ft 296 kts 40°
2026-05-04 20:02 50.48788 -1.27400 13008 ft 295 kts 40°
2026-05-04 20:02 50.50366 -1.25334 13007 ft 295 kts 40°
2026-05-04 20:02 50.51940 -1.23272 13007 ft 294 kts 40°
2026-05-04 20:02 50.53512 -1.21210 13007 ft 294 kts 40°
2026-05-04 20:03 50.55082 -1.19150 13006 ft 294 kts 40°
2026-05-04 20:03 50.56649 -1.17087 13007 ft 294 kts 40°
2026-05-04 20:03 50.58217 -1.15026 13007 ft 294 kts 40°
2026-05-04 20:03 50.59784 -1.12961 13010 ft 293 kts 40°
2026-05-04 20:04 50.61350 -1.10899 13007 ft 293 kts 40°
2026-05-04 20:04 50.62914 -1.08834 13007 ft 293 kts 40°
2026-05-04 20:04 50.64480 -1.06768 13005 ft 293 kts 40°
2026-05-04 20:04 50.66037 -1.04698 13006 ft 291 kts 42°
2026-05-04 20:05 50.67401 -1.02339 13007 ft 292 kts 52°
2026-05-04 20:05 50.68636 -0.99788 12958 ft 294 kts 53°
2026-05-04 20:05 50.69872 -0.97216 12902 ft 294 kts 52°
2026-05-04 20:05 50.71148 -0.94685 12851 ft 295 kts 51°
2026-05-04 20:06 50.72451 -0.92188 12796 ft 295 kts 51°
2026-05-04 20:06 50.73752 -0.89681 12742 ft 294 kts 51°
2026-05-04 20:06 50.75037 -0.87191 12688 ft 291 kts 51°
2026-05-04 20:06 50.76322 -0.84710 12636 ft 293 kts 51°
2026-05-04 20:07 50.77580 -0.82267 12585 ft 285 kts 51°
2026-05-04 20:07 50.78814 -0.79880 12473 ft 275 kts 51°
2026-05-04 20:07 50.80007 -0.77562 12365 ft 268 kts 51°
2026-05-04 20:07 50.81231 -0.75402 12256 ft 260 kts 38°
2026-05-04 20:08 50.82815 -0.74113 12158 ft 255 kts 22°
2026-05-04 20:08 50.84472 -0.73152 12055 ft 252 kts 20°
2026-05-04 20:08 50.86120 -0.72233 11908 ft 252 kts 20°
2026-05-04 20:08 50.87779 -0.71252 11652 ft 256 kts 22°
2026-05-04 20:09 50.89445 -0.70193 11396 ft 260 kts 23°
2026-05-04 20:09 50.91119 -0.69098 11188 ft 261 kts 23°
2026-05-04 20:09 50.92797 -0.68014 11093 ft 262 kts 23°
2026-05-04 20:09 50.94512 -0.66912 11052 ft 270 kts 23°
2026-05-04 20:10 50.96273 -0.65770 11033 ft 276 kts 23°
2026-05-04 20:10 50.98064 -0.64614 11021 ft 280 kts 23°
2026-05-04 20:10 50.99875 -0.63440 11015 ft 283 kts 23°
2026-05-04 20:10 51.01706 -0.62251 11011 ft 285 kts 23°
2026-05-04 20:11 51.03545 -0.61063 11016 ft 286 kts 23°
2026-05-04 20:11 51.05389 -0.59868 11019 ft 287 kts 23°
2026-05-04 20:11 51.07240 -0.58663 11017 ft 288 kts 23°
2026-05-04 20:11 51.09090 -0.57465 11019 ft 288 kts 23°
2026-05-04 20:12 51.10948 -0.56252 11019 ft 288 kts 23°
2026-05-04 20:12 51.12803 -0.55043 11022 ft 288 kts 22°
2026-05-04 20:12 51.14666 -0.53834 11020 ft 289 kts 23°
2026-05-04 20:12 51.16524 -0.52613 11017 ft 289 kts 23°
2026-05-04 20:13 51.18387 -0.51400 11017 ft 289 kts 23°
2026-05-04 20:13 51.20227 -0.50203 11016 ft 289 kts 23°
2026-05-04 20:13 51.22086 -0.48977 11020 ft 289 kts 23°
2026-05-04 20:13 51.23948 -0.47759 11021 ft 289 kts 23°
2026-05-04 20:14 51.25810 -0.46546 11017 ft 289 kts 23°
2026-05-04 20:14 51.27673 -0.45322 11016 ft 289 kts 23°
2026-05-04 20:14 51.29535 -0.44102 11018 ft 289 kts 23°
2026-05-04 20:14 51.31394 -0.42879 11017 ft 289 kts 23°
2026-05-04 20:15 51.33254 -0.41648 11025 ft 289 kts 23°
2026-05-04 20:15 51.35116 -0.40424 11018 ft 289 kts 21°
2026-05-04 20:15 51.36981 -0.39207 11019 ft 290 kts 22°
2026-05-04 20:15 51.38843 -0.37948 11018 ft 290 kts 23°
2026-05-04 20:16 51.40682 -0.36685 11020 ft 282 kts 23°
2026-05-04 20:16 51.42447 -0.35500 11019 ft 269 kts 22°
2026-05-04 20:16 51.44143 -0.34340 11019 ft 260 kts 24°
2026-05-04 20:16 51.45766 -0.33167 11017 ft 252 kts 25°
2026-05-04 20:17 51.47337 -0.31976 11017 ft 247 kts 25°
2026-05-04 20:17 51.48873 -0.30801 11021 ft 243 kts 25°
2026-05-04 20:17 51.50386 -0.29646 11019 ft 239 kts 25°
2026-05-04 20:17 51.51860 -0.28518 11018 ft 236 kts 25°
2026-05-04 20:18 51.53339 -0.27387 11021 ft 234 kts 25°
2026-05-04 20:18 51.54803 -0.26263 11021 ft 232 kts 25°
2026-05-04 20:18 51.56258 -0.25150 11022 ft 231 kts 25°
2026-05-04 20:18 51.57705 -0.24039 11025 ft 230 kts 25°
2026-05-04 20:19 51.59141 -0.22913 11048 ft 229 kts 25°
2026-05-04 20:19 51.60572 -0.21782 11050 ft 229 kts 25°
2026-05-04 20:19 51.62002 -0.20654 11048 ft 229 kts 25°
2026-05-04 20:19 51.63438 -0.19542 11052 ft 228 kts 25°
2026-05-04 20:20 51.64868 -0.18435 11045 ft 228 kts 24°
2026-05-04 20:20 51.66295 -0.17341 11049 ft 227 kts 24°
2026-05-04 20:20 51.67726 -0.16260 11045 ft 227 kts 24°
2026-05-04 20:20 51.69153 -0.15178 11046 ft 227 kts 24°
2026-05-04 20:21 51.70592 -0.14079 11053 ft 233 kts 24°
2026-05-04 20:21 51.72076 -0.12946 11052 ft 237 kts 24°
2026-05-04 20:21 51.75072 -0.10659 10934 ft 243 kts 24°
2026-05-04 20:22 51.76614 -0.09512 10716 ft 249 kts 24°
2026-05-04 20:22 51.78202 -0.08375 10487 ft 249 kts 22°
2026-05-04 20:22 51.79789 -0.07259 10280 ft 248 kts 21°
2026-05-04 20:22 51.81378 -0.06161 10066 ft 247 kts 21°
2026-05-04 20:23 51.82958 -0.05056 9827 ft 247 kts 21°
2026-05-04 20:23 51.84531 -0.03944 9597 ft 246 kts 21°
2026-05-04 20:23 51.86099 -0.02844 9357 ft 246 kts 21°
2026-05-04 20:23 51.87661 -0.01747 9182 ft 243 kts 21°
2026-05-04 20:24 51.89191 -0.00670 9100 ft 236 kts 21°
2026-05-04 20:24 51.90675 0.00375 9067 ft 229 kts 21°
2026-05-04 20:24 51.92114 0.01386 9061 ft 222 kts 21°
2026-05-04 20:24 51.93512 0.02373 9050 ft 217 kts 21°
2026-05-04 20:25 51.94886 0.03343 8945 ft 217 kts 21°
2026-05-04 20:25 51.96300 0.04338 8677 ft 224 kts 21°
2026-05-04 20:25 51.97701 0.05517 8267 ft 233 kts 28°
2026-05-04 20:25 51.99098 0.06866 8017 ft 235 kts 27°
2026-05-04 20:26 52.00549 0.08104 7766 ft 236 kts 24°
2026-05-04 20:26 52.02038 0.09289 7420 ft 242 kts 23°
2026-05-04 20:26 52.03577 0.10486 6928 ft 248 kts 23°
2026-05-04 20:26 52.05156 0.11699 6480 ft 252 kts 23°
2026-05-04 20:27 52.06724 0.12894 6246 ft 245 kts 23°
2026-05-04 20:27 52.08265 0.13823 6135 ft 229 kts
2026-05-04 20:27 52.09739 0.13302 6087 ft 209 kts 328°
2026-05-04 20:27 52.10656 0.11876 6677 ft 164 kts 295°
2026-05-04 20:28 52.10675 0.10072 6608 ft 180 kts 243°
2026-05-04 20:28 52.09501 0.08922 5722 ft 228 kts 182°
2026-05-04 20:28 52.07992 0.08916 5757 ft 207 kts 182°
2026-05-04 20:28 52.06594 0.08969 5908 ft 197 kts 180°
2026-05-04 20:29 52.05224 0.09106 5977 ft 198 kts 175°
2026-05-04 20:29 52.03873 0.09311 6010 ft 198 kts 180°
2026-05-04 20:29 52.02481 0.09448 6031 ft 203 kts 177°
2026-05-04 20:29 52.01069 0.09689 6042 ft 204 kts 175°
2026-05-04 20:30 51.99643 0.09899 6049 ft 207 kts 178°
2026-05-04 20:30 51.98216 0.09798 6053 ft 205 kts 192°
2026-05-04 20:30 51.96802 0.09339 6048 ft 208 kts 194°
2026-05-04 20:30 51.95381 0.08821 6048 ft 210 kts 195°
2026-05-04 20:31 51.93950 0.08276 6045 ft 212 kts 195°
2026-05-04 20:31 51.92515 0.07720 6052 ft 213 kts 196°
2026-05-04 20:31 51.91095 0.07037 5943 ft 216 kts 203°
2026-05-04 20:31 51.89698 0.06130 5704 ft 216 kts 205°
2026-05-04 20:32 51.88314 0.05177 5477 ft 216 kts 206°
2026-05-04 20:32 51.86937 0.04199 5253 ft 217 kts 206°
2026-05-04 20:32 51.85553 0.03207 4956 ft 218 kts 206°
2026-05-04 20:32 51.84169 0.02200 4613 ft 219 kts 206°
2026-05-04 20:33 51.82810 0.01188 4195 ft 215 kts 206°
2026-05-04 20:33 51.81423 0.00202 3786 ft 220 kts 197°
2026-05-04 20:33 51.79949 0.00251 3383 ft 212 kts 157°
2026-05-04 20:33 51.78816 0.01574 2965 ft 195 kts 134°
2026-05-04 20:34 51.78022 0.03222 2545 ft 182 kts 104°
2026-05-04 20:34 51.78137 0.05119 2274 ft 166 kts 58°
2026-05-04 20:34 51.78556 0.06089 2180 ft 153 kts 56°
2026-05-04 20:34 51.79128 0.07467 2110 ft 142 kts 55°
2026-05-04 20:35 51.79664 0.08715 2047 ft 129 kts 54°
2026-05-04 20:35 51.80168 0.09825 1991 ft 119 kts 51°
2026-05-04 20:35 51.80701 0.10901 1718 ft 127 kts 51°
2026-05-04 20:35 51.81235 0.11971 1842 ft 107 kts 49°
2026-05-04 20:36 51.81736 0.12918 1765 ft 128 kts 48°
2026-05-04 20:36 51.82387 0.14093 1579 ft 144 kts 44°
2026-05-04 20:36 51.83102 0.15244 1418 ft 150 kts 44°
2026-05-04 20:36 51.83877 0.16493 1055 ft 160 kts 46°
2026-05-04 20:37 51.84662 0.17758 835 ft 159 kts 41°
2026-05-04 20:37 51.85462 0.18958 706 ft 150 kts 41°
2026-05-04 20:37 51.86235 0.20056 580 ft 148 kts 40°
2026-05-04 20:37 51.86963 0.21167 499 ft 138 kts 41°
2026-05-04 20:38 51.87623 0.22151 360 ft 123 kts 41°
2026-05-04 20:38 51.88238 0.23079 331 ft 103 kts 45°
2026-05-04 20:38 51.88463 0.23416 332 ft 13 kts 42°
2026-05-04 20:38 51.88551 0.23550 332 ft 31 kts 43°
2026-05-04 20:39 51.88760 0.23872 333 ft 33 kts 46°
2026-05-04 20:39 51.88866 0.24147 334 ft 24 kts 70°
2026-05-04 20:39 51.88909 0.24370 336 ft 18 kts 72°
2026-05-04 20:39 51.88919 0.24496 340 ft 8 kts 133°
2026-05-04 20:40 51.88886 0.24576 339 ft 7 kts 67°
2026-05-04 20:40 51.88950 0.24638 338 ft 24 kts 40°
2026-05-04 20:40 51.89095 0.24853 339 ft 21 kts 44°
2026-05-04 20:40 51.89170 0.24971 339 ft 13 kts 44°
2026-05-04 20:41 51.89230 0.25070 340 ft 19 kts 47°
2026-05-04 20:41 51.89307 0.25243 340 ft 17 kts 50°
2026-05-04 20:41 51.89379 0.25358 340 ft 13 kts 44°
2026-05-04 20:41 51.89441 0.25452 339 ft 12 kts 42°
2026-05-04 20:42 51.89504 0.25543 340 ft 12 kts 41°
2026-05-04 20:42 51.89591 0.25666 340 ft 20 kts 40°
2026-05-04 20:42 51.89713 0.25852 339 ft 25 kts 44°
2026-05-04 20:42 51.89806 0.26035 337 ft 18 kts 90°
2026-05-04 20:43 51.89735 0.26162 339 ft 11 kts 147°
2026-05-04 20:43 51.89697 0.26224 348 ft 1 kts 154°
2026-05-04 20:43 51.89682 0.26203 345 ft 5 kts 223°
2026-05-04 20:43 51.89655 0.26161 341 ft 3 kts 223°
2026-05-04 20:44 51.89653 0.26157 341 ft 0 kts 223°